Temp
73 76 82 83 83 83 83 82 83 83 83 83 83 83 83 83 83 83 83 83 84 84 85 84 84 84 84 84 84 84 83 83 83 83 83 82 82 82 83 83 82 81 82
76 78 81 83 83 83 83 83 83 83 83 83 83 83 83 83 83 83 83 83 83 83 84 84 84 84 83 84 84 83 83 83 83 83 83 83 83 83 83 82 82 82 83
77 78 80 82 83 83 83 83 83 83 83 83 83 83 83 83 83 84 84 84 84 84 83 83 83 83 83 83 84 83 83 83 83 83 82 78 79 83 83 83 82 82 81
77 77 79 81 83 83 83 83 83 83 83 83 83 83 83 84 84 84 84 83 84 84 84 84 83 83 82 83 83 83 82 83 83 82 77 79 82 83 83 82 82 82 82
76 76 78 82 83 83 82 83 83 83 83 83 83 83 83 84 84 84 83 83 83 83 83 83 83 83 83 83 83 83 82 83 83 82 76 74 75 82 82 82 82 82 82
76 78 81 83 83 83 83 82 83 83 83 83 83 83 83 84 84 84 83 83 83 83 83 83 83 83 83 83 83 82 82 83 83 79 76 76 74 82 82 82 82 82 81
75 77 79 82 83 83 83 82 82 83 83 83 83 83 83 83 83 83 83 83 83 83 83 83 83 83 83 83 83 83 83 84 78 76 76 74 74 82 82 82 82 82 81
75 77 78 82 83 83 83 83 83 83 83 83 83 83 83 83 83 83 83 83 83 83 83 83 83 83 83 84 83 83 83 84 80 76 75 73 76 81 82 82 82 82 81
77 76 76 77 80 83 83 83 83 83 83 83 83 83 83 83 83 83 83 83 83 83 83 83 83 83 83 84 83 83 83 84 75 74 77 73 78 81 82 82 82 81 81
75 75 74 75 75 74 76 83 83 83 83 83 83 83 83 83 83 83 82 82 83 83 84 84 84 84 83 83 83 83 84 83 76 75 74 73 78 81 82 82 82 81 81
75 74 74 74 73 74 75 80 82 84 84 84 83 84 80 75 78 79 82 83 84 84 84 85 84 83 82 80 82 82 82 76 76 75 74 77 79 81 82 82 82 81 81
71 72 73 73 73 73 81 76 75 78 76 75 75 76 75 75 76 81 82 84 85 85 84 84 82 82 80 76 75 77 75 75 76 75 74 79 80 81 82 82 82 82 82
73 73 73 72 73 73 74 73 74 74 74 74 74 74 75 76 76 76 75 77 77 80 75 78 79 77 77 74 75 72 75 75 72 75 76 80 80 81 82 82 81 81 82
73 74 73 73 73 73 73 73 74 74 73 72 72 73 73 72 74 75 75 74 74 73 73 74 74 75 75 76 74 76 75 74 73 73 73 80 81 81 82 82 82 82 82
73 74 74 74 73 74 74 73 73 73 72 73 73 73 71 73 73 75 72 75 74 73 73 73 72 72 74 76 75 78 75 74 73 76 74 81 81 81 82 82 82 82 82
74 74 74 75 75 75 74 74 73 73 73 72 73 74 74 71 73 75 72 74 75 73 73 71 71 71 73 74 77 76 76 75 73 74 74 73 80 81 81 82 82 82 82
74 77 74 76 77 74 74 73 73 75 76 71 75 75 76 76 76 76 75 75 75 74 73 72 71 71 72 73 73 74 74 73 74 76 75 73 74 79 81 81 81 82 82
76 75 74 83 78 75 74 74 76 76 75 75 75 75 76 76 76 76 75 73 73 73 72 71 70 70 70 70 70 71 72 73 73 75 75 76 76 76 77 80 81 80 81
78 76 75 78 76 76 75 75 75 75 76 76 76 76 76 78 79 76 76 76 76 74 71 73 71 70 69 70 71 72 74 71 76 80 78 80 76 75 75 76 79 80 81
79 77 78 77 76 75 74 74 74 74 75 75 76 75 78 77 79 76 75 76 75 74 73 74 73 71 71 71 77 79 76 76 76 75 76 78 77 76 74 73 73 77 80
78 77 75 75 74 73 72 72 72 73 74 73 74 75 76 76 76 76 75 75 76 75 74 75 74 72 72 71 69 71 72 74 73 72 74 75 76 78 77 77 76 75 78
78 78 74 76 73 73 74 73 74 73 72 72 72 73 74 75 76 76 74 73 73 74 74 74 73 72 72 72 70 67 65 71 73 76 75 76 75 76 78 81 79 78 78
77 77 76 75 75 74 74 74 73 72 72 72 71 71 73 74 74 73 73 71 71 73 71 71 72 73 71 72 73 71 66 63 65 73 75 74 74 74 75 77 79 79 79
78 79 77 76 75 75 74 73 73 70 69 71 69 70 70 73 74 73 71 70 69 71 71 71 74 72 71 69 71 72 70 70 66 65 70 73 76 77 76 75 77 77 78
80 78 76 74 74 75 74 73 71 71 71 70 69 69 70 70 73 73 71 70 70 71 71 71 71 70 71 70 69 70 70 69 68 66 67 67 74 73 75 78 75 76 77
80 78 76 72 71 71 72 72 71 71 70 68 69 68 69 69 68 69 71 70 70 69 69 69 69 69 69 69 69 69 69 68 68 66 65 70 69 75 74 76 75 78 78
MSLP
1016.15 1015.86 1015.65 1015.61 1015.60 1015.62 1015.74 1015.64 1015.83 1015.91 1015.95 1015.97 1015.93 1016.07 1016.13 1016.12 1016.04 1015.98 1016.02 1016.15 1016.19 1016.24 1016.23 1016.31 1016.34 1016.37 1016.36 1016.44 1016.44 1016.58 1016.73 1016.76 1016.83 1016.80 1016.71 1016.78 1016.91 1017.05 1017.09 1017.15 1017.32 1017.45 1017.46
1015.83 1015.95 1015.95 1015.88 1015.88 1015.97 1015.96 1016.01 1016.01 1016.04 1016.13 1016.20 1016.25 1016.38 1016.40 1016.39 1016.46 1016.45 1016.42 1016.54 1016.56 1016.67 1016.79 1016.89 1016.93 1016.87 1016.92 1016.95 1016.99 1017.06 1017.09 1017.18 1017.24 1017.22 1017.10 1017.12 1017.23 1017.27 1017.36 1017.48 1017.63 1017.56 1017.58
1016.06 1016.13 1016.24 1016.24 1016.20 1016.26 1016.31 1016.29 1016.36 1016.36 1016.37 1016.31 1016.43 1016.59 1016.75 1016.76 1016.73 1016.79 1016.82 1016.82 1016.88 1016.99 1017.17 1017.38 1017.35 1017.37 1017.39 1017.46 1017.46 1017.51 1017.56 1017.55 1017.56 1017.62 1017.66 1017.66 1017.55 1017.53 1017.68 1017.72 1017.93 1018.04 1018.14
1016.19 1016.37 1016.37 1016.40 1016.42 1016.56 1016.68 1016.70 1016.72 1016.72 1016.77 1016.77 1016.81 1016.86 1016.91 1016.97 1016.98 1017.10 1017.17 1017.26 1017.34 1017.46 1017.59 1017.72 1017.73 1017.75 1017.75 1017.76 1017.76 1017.93 1017.88 1017.88 1017.82 1017.90 1018.07 1017.99 1017.71 1017.77 1017.93 1018.18 1018.32 1018.32 1018.39
1016.57 1016.65 1016.58 1016.63 1016.71 1016.82 1016.85 1017.01 1017.05 1017.03 1017.06 1017.09 1017.10 1017.20 1017.22 1017.22 1017.33 1017.42 1017.65 1017.58 1017.71 1017.84 1017.89 1017.97 1018.02 1018.05 1018.15 1018.10 1018.05 1018.00 1018.09 1018.10 1018.03 1018.13 1018.32 1018.25 1018.05 1018.01 1018.34 1018.44 1018.51 1018.66 1018.75
1016.80 1016.74 1016.66 1016.82 1016.96 1017.12 1017.26 1017.38 1017.35 1017.44 1017.46 1017.37 1017.30 1017.31 1017.40 1017.53 1017.63 1017.66 1017.85 1017.98 1018.00 1018.01 1018.09 1018.20 1018.27 1018.30 1018.38 1018.33 1018.36 1018.32 1018.26 1018.11 1017.96 1018.21 1018.48 1018.45 1018.29 1018.11 1018.39 1018.69 1018.74 1018.89 1018.85
1017.03 1016.91 1016.98 1017.18 1017.32 1017.42 1017.53 1017.65 1017.51 1017.63 1017.71 1017.62 1017.53 1017.57 1017.69 1017.79 1017.94 1018.00 1018.11 1018.24 1018.25 1018.28 1018.38 1018.40 1018.31 1018.24 1018.45 1018.46 1018.45 1018.45 1018.37 1017.95 1018.05 1018.04 1018.46 1018.52 1018.54 1018.27 1018.35 1018.60 1018.82 1019.02 1019.05
1017.27 1017.32 1017.30 1017.40 1017.58 1017.75 1017.76 1017.68 1017.70 1017.76 1017.84 1017.82 1017.81 1017.82 1017.91 1018.08 1018.21 1018.28 1018.31 1018.41 1018.48 1018.54 1018.62 1018.57 1018.45 1018.44 1018.48 1018.50 1018.49 1018.46 1018.29 1018.08 1018.19 1018.31 1018.35 1018.46 1018.31 1018.38 1018.38 1018.61 1018.82 1018.98 1019.08
1017.37 1017.50 1017.46 1017.58 1017.78 1017.82 1017.85 1017.91 1017.90 1017.94 1017.95 1017.99 1018.08 1018.17 1018.30 1018.45 1018.42 1018.45 1018.48 1018.56 1018.55 1018.61 1018.58 1018.54 1018.57 1018.52 1018.54 1018.60 1018.55 1018.32 1018.08 1018.16 1018.56 1018.77 1018.84 1018.83 1018.56 1018.39 1018.38 1018.54 1018.74 1018.81 1018.92
1017.63 1017.61 1017.74 1017.92 1018.14 1018.23 1018.16 1018.06 1018.12 1018.13 1018.17 1018.23 1018.38 1018.49 1018.60 1018.65 1018.61 1018.58 1018.63 1018.63 1018.76 1018.75 1018.57 1018.56 1018.53 1018.57 1018.51 1018.44 1018.35 1018.15 1018.15 1018.15 1018.17 1018.37 1018.52 1018.78 1018.90 1018.82 1018.71 1018.73 1018.61 1018.63 1018.70
1017.95 1017.88 1017.92 1018.21 1018.28 1018.29 1018.32 1018.25 1018.30 1018.35 1018.36 1018.35 1018.41 1018.54 1018.80 1018.81 1018.59 1018.56 1018.56 1018.67 1018.77 1018.70 1018.65 1018.55 1018.53 1018.51 1018.38 1018.24 1018.15 1018.06 1018.00 1018.04 1017.99 1018.04 1018.42 1018.65 1018.66 1018.67 1018.69 1018.84 1018.96 1018.97 1019.05
1018.02 1018.07 1018.13 1018.42 1018.43 1018.43 1018.26 1018.43 1018.65 1018.52 1018.50 1018.46 1018.56 1018.73 1018.75 1018.71 1018.32 1017.99 1018.10 1018.36 1018.51 1018.51 1018.59 1018.50 1018.42 1018.41 1018.41 1018.29 1018.02 1017.85 1017.89 1017.90 1017.74 1017.66 1017.89 1017.99 1018.31 1018.46 1018.55 1018.66 1018.75 1018.68 1018.95
1017.79 1018.03 1018.21 1018.35 1018.48 1018.62 1018.57 1018.59 1018.73 1018.58 1018.51 1018.47 1018.43 1018.51 1018.46 1018.43 1017.99 1017.98 1018.07 1018.48 1018.48 1018.59 1018.70 1018.44 1018.21 1018.33 1018.30 1018.30 1017.88 1017.72 1017.61 1017.58 1017.63 1017.66 1017.44 1017.62 1017.78 1018.02 1018.28 1018.31 1018.54 1018.70 1018.55
1017.79 1017.91 1018.18 1018.32 1018.53 1018.67 1018.66 1018.69 1018.68 1018.64 1018.61 1018.64 1018.58 1018.62 1018.44 1018.51 1018.20 1017.92 1018.25 1018.48 1018.54 1018.75 1018.49 1018.28 1018.17 1018.24 1018.12 1018.09 1018.00 1017.64 1017.33 1017.44 1017.57 1017.72 1017.59 1017.31 1017.37 1017.48 1017.92 1018.08 1018.22 1018.23 1018.38
1017.73 1017.88 1017.90 1018.09 1018.32 1018.42 1018.64 1018.77 1018.83 1018.68 1018.61 1018.51 1018.51 1018.51 1018.63 1018.11 1018.19 1018.06 1018.51 1018.19 1018.48 1018.40 1018.32 1018.30 1018.94 1018.58 1018.35 1017.47 1017.62 1017.36 1017.41 1017.65 1017.65 1017.53 1017.50 1017.41 1017.16 1017.24 1017.37 1017.55 1017.79 1017.78 1017.93
1017.38 1017.77 1017.85 1017.99 1017.92 1018.07 1018.23 1018.50 1018.88 1018.70 1018.63 1018.55 1018.44 1018.32 1018.55 1018.48 1018.26 1018.18 1018.75 1018.56 1018.39 1018.28 1018.36 1018.67 1019.00 1018.54 1017.85 1017.49 1017.84 1017.38 1017.45 1017.65 1017.43 1017.14 1017.14 1017.23 1017.31 1017.32 1017.35 1017.17 1017.30 1017.35 1017.45
1017.10 1017.35 1017.73 1017.77 1017.70 1017.92 1018.04 1018.35 1018.70 1018.63 1018.55 1018.61 1018.41 1018.33 1018.38 1018.33 1018.21 1018.30 1018.48 1018.55 1018.46 1018.42 1018.69 1018.79 1018.82 1018.26 1018.22 1017.60 1017.37 1017.15 1017.63 1017.72 1017.30 1016.80 1017.02 1017.12 1017.18 1016.93 1016.96 1016.99 1016.91 1016.82 1016.63
1016.88 1017.23 1017.43 1017.67 1017.69 1017.84 1018.01 1018.09 1018.16 1018.35 1018.36 1018.42 1018.33 1018.25 1018.48 1018.54 1018.42 1018.42 1018.19 1018.63 1018.62 1018.60 1018.84 1018.86 1018.88 1018.62 1018.51 1018.29 1018.27 1017.98 1017.82 1017.48 1017.35 1016.89 1016.78 1016.57 1016.37 1016.32 1016.50 1016.48 1016.25 1016.16 1015.73
1016.37 1016.84 1017.32 1017.38 1017.54 1017.60 1017.67 1017.84 1018.08 1018.19 1018.12 1018.03 1018.09 1018.24 1018.36 1018.24 1018.23 1018.52 1018.16 1018.04 1018.28 1018.46 1018.99 1019.20 1019.30 1019.23 1018.92 1018.57 1018.63 1018.58 1018.15 1017.67 1017.09 1016.70 1016.54 1016.24 1016.00 1015.92 1015.96 1015.97 1015.70 1015.49 1015.06
1016.19 1016.57 1017.02 1017.33 1017.55 1017.61 1017.57 1017.85 1018.22 1018.01 1017.91 1018.00 1018.01 1018.17 1018.44 1018.52 1018.31 1018.46 1018.45 1018.34 1018.37 1018.55 1018.83 1018.87 1019.05 1019.14 1019.11 1018.83 1018.76 1018.48 1018.06 1017.51 1016.86 1016.77 1016.57 1016.09 1015.90 1015.85 1015.70 1015.57 1015.27 1015.06 1014.65
1016.02 1016.52 1016.78 1017.10 1017.34 1017.56 1017.89 1018.12 1018.43 1018.45 1018.46 1018.63 1018.46 1018.26 1018.39 1018.41 1018.39 1018.24 1018.38 1018.37 1018.43 1018.82 1018.87 1018.73 1018.90 1019.12 1019.20 1019.25 1019.36 1018.74 1018.08 1017.43 1017.12 1016.93 1016.50 1016.21 1015.78 1015.57 1015.47 1015.27 1014.98 1014.76 1014.38
1015.48 1016.03 1016.54 1016.82 1017.27 1017.34 1017.32 1017.60 1017.76 1018.11 1018.40 1018.72 1018.54 1018.51 1018.48 1018.45 1018.30 1018.27 1018.32 1018.45 1018.61 1018.74 1018.85 1018.84 1018.84 1018.98 1019.01 1018.92 1019.14 1019.28 1018.82 1017.85 1017.13 1016.78 1016.62 1016.37 1016.02 1015.61 1015.20 1014.88 1014.76 1014.47 1014.16
1015.41 1015.69 1016.18 1016.44 1016.67 1017.15 1017.49 1017.55 1017.79 1018.32 1018.43 1018.56 1018.79 1018.98 1018.87 1018.62 1018.79 1018.77 1018.87 1018.72 1018.67 1018.63 1019.04 1019.12 1019.13 1018.96 1018.98 1018.77 1018.70 1018.86 1018.98 1018.87 1018.18 1016.89 1016.38 1016.08 1015.82 1015.46 1015.22 1014.92 1014.36 1013.98 1013.59
1014.90 1015.50 1015.99 1016.29 1016.53 1016.70 1017.02 1017.48 1017.76 1018.21 1018.82 1018.89 1019.00 1019.29 1019.26 1019.16 1019.06 1019.23 1019.32 1018.99 1018.89 1018.80 1019.08 1019.04 1019.05 1019.19 1019.24 1019.21 1018.94 1018.79 1018.73 1018.75 1018.64 1017.62 1016.83 1016.05 1015.53 1015.24 1014.91 1014.49 1014.11 1013.72 1013.35
1014.62 1015.05 1015.72 1016.32 1016.64 1016.88 1017.04 1017.35 1017.87 1018.39 1018.58 1018.84 1019.14 1019.28 1019.25 1019.34 1019.51 1019.55 1019.74 1019.55 1019.39 1019.21 1019.24 1019.20 1019.11 1019.12 1019.18 1019.23 1019.26 1019.03 1018.71 1018.50 1018.44 1018.49 1017.29 1016.34 1015.72 1015.15 1014.64 1014.17 1013.72 1013.31 1012.98
1014.35 1014.87 1015.49 1016.28 1016.98 1017.26 1017.32 1017.60 1017.80 1018.03 1018.59 1018.94 1019.25 1019.46 1019.58 1019.70 1019.97 1020.03 1020.03 1019.87 1019.80 1019.66 1019.73 1019.60 1019.58 1019.37 1019.40 1019.47 1019.39 1019.40 1019.29 1019.28 1018.94 1018.64 1018.08 1017.04 1016.13 1014.77 1014.31 1013.78 1013.37 1012.93 1012.61
Wind_Speed
2 2 4 7 9 9 8 11 11 12 13 13 14 14 14 14 14 14 13 13 12 12 11 12 12 12 12 12 12 13 13 12 11 10 10 10 10 10 11 12 12 8 13
5 3 8 10 10 10 10 11 11 11 13 12 13 13 13 13 13 12 13 13 12 12 11 12 11 11 11 11 11 11 11 10 10 10 9 9 10 9 9 10 10 9 12
5 5 6 9 10 10 10 10 10 11 11 11 12 12 12 12 12 12 12 12 12 11 12 11 10 9 9 9 10 10 10 9 8 8 8 4 4 8 9 9 10 9 9
6 4 4 8 9 9 9 10 10 10 10 10 10 11 11 11 11 11 11 12 11 10 10 10 9 8 8 9 10 9 8 5 7 7 3 2 4 6 6 7 8 8 9
5 5 5 9 9 8 9 10 9 9 11 10 10 10 9 11 11 11 9 11 10 9 7 7 6 6 6 5 6 4 3 3 4 3 3 2 2 5 5 7 7 6 7
5 4 8 10 10 9 9 8 9 9 9 9 10 9 8 10 9 11 9 9 8 6 5 4 4 3 4 3 2 3 5 7 9 4 4 4 2 6 7 7 8 7 7
5 4 5 8 9 9 9 7 8 10 9 9 9 8 8 8 8 9 8 7 6 6 5 4 2 1 3 5 6 7 10 8 3 4 5 3 3 8 8 8 7 7 6
5 4 4 7 8 7 7 7 9 10 10 9 8 8 8 8 7 6 6 6 5 6 6 6 4 5 6 6 7 8 9 6 4 2 4 4 7 7 8 9 8 8 8
5 5 5 4 6 6 7 7 8 8 8 8 7 6 5 5 4 4 3 3 3 4 5 6 6 6 7 7 7 6 4 5 2 0 3 3 9 11 11 11 10 10 10
4 4 4 3 4 2 2 8 8 8 7 6 5 4 3 3 2 2 1 2 0 3 3 4 5 6 8 9 8 7 6 2 4 4 4 3 10 11 10 10 11 12 11
4 4 4 4 4 3 2 4 6 8 7 6 4 3 4 2 1 3 3 4 3 2 2 2 3 6 7 6 6 8 7 2 4 3 3 6 10 13 12 11 10 10 10
6 5 5 4 4 2 2 3 3 3 3 1 1 1 1 2 4 5 6 5 4 4 3 2 6 5 3 2 1 3 2 4 3 4 4 9 9 13 13 11 10 11 10
7 4 6 5 5 3 1 2 1 0 1 1 1 4 3 1 3 2 2 1 1 4 2 2 4 3 2 2 2 2 2 2 1 3 5 8 10 13 15 13 12 13 13
7 7 6 6 6 5 1 2 1 1 1 2 2 2 3 2 3 2 3 3 3 2 3 5 2 3 4 3 5 3 2 2 1 2 5 10 11 13 14 15 14 13 14
7 6 7 7 6 6 5 3 2 3 2 3 3 3 2 3 3 2 4 4 4 3 4 3 2 3 2 5 4 3 3 4 3 3 3 10 10 13 14 16 16 16 14
8 7 6 6 6 5 5 5 4 3 4 4 2 3 3 2 2 2 4 3 3 3 2 0 2 4 3 4 1 2 2 2 4 5 3 3 7 10 13 15 15 17 17
9 8 8 7 7 5 5 3 5 4 4 4 3 2 3 3 2 1 3 4 1 3 2 1 2 2 4 6 7 5 0 4 6 7 5 3 4 8 11 14 14 18 20
8 8 8 8 7 7 6 4 4 3 4 4 4 2 1 4 2 2 2 5 3 3 3 1 2 1 3 4 4 6 7 8 7 9 7 6 4 3 6 10 15 17 22
11 9 10 7 8 7 6 5 3 4 4 3 3 2 2 2 4 3 2 3 5 5 4 4 1 2 2 4 4 5 7 7 9 8 10 9 6 5 3 9 13 15 21
11 9 9 8 7 6 5 4 2 2 3 3 3 2 3 3 4 2 2 2 2 4 3 3 3 4 2 4 5 5 6 7 6 6 8 7 6 6 5 6 6 8 16
11 10 9 8 8 5 2 3 2 2 1 1 3 5 2 3 3 4 2 3 2 1 1 3 3 4 4 2 2 3 5 6 6 5 4 5 7 5 5 6 5 5 7
14 13 8 8 6 5 4 3 3 3 2 3 2 4 3 2 1 4 4 4 3 1 2 2 2 2 1 2 2 1 4 6 3 3 4 5 7 5 5 7 6 7 7
13 13 11 9 9 7 4 3 4 4 2 2 3 3 3 3 3 5 5 3 3 3 3 1 2 1 1 2 1 1 2 3 4 4 5 4 5 3 4 5 6 6 6
14 10 9 9 7 6 7 4 4 3 2 1 2 3 2 3 3 4 4 5 4 3 4 2 2 1 1 2 2 1 3 2 3 6 3 5 6 7 7 5 5 5 5
12 12 9 6 6 6 6 4 5 3 3 3 2 3 2 4 5 5 2 4 5 4 4 5 5 4 2 2 2 3 2 2 4 4 8 5 5 5 5 6 5 5 4
10 10 8 7 3 5 6 5 6 7 6 4 2 3 3 4 4 5 4 5 5 6 6 5 5 6 6 4 3 3 3 3 5 2 3 9 7 8 4 5 5 5 5
Wind_Direction
234 221 155 142 111 104 101 97 99 92 94 91 91 96 98 98 99 101 98 94 89 88 92 92 92 89 96 95 95 98 99 100 99 99 101 104 100 98 98 98 96 100 108
137 161 142 127 129 115 110 101 98 94 92 95 96 94 91 94 96 97 94 90 88 89 86 87 85 91 90 94 98 100 104 105 102 97 93 113 121 106 108 105 113 129 122
123 120 127 140 129 126 118 117 108 104 102 98 93 95 97 100 104 103 101 101 98 89 85 90 90 87 88 96 104 103 106 107 103 97 91 57 110 118 116 122 124 106 102
129 121 125 127 124 125 125 117 113 112 109 103 101 102 112 110 109 104 98 91 88 88 85 88 89 91 96 104 102 108 111 124 123 110 78 45 112 120 119 103 103 123 124
108 122 149 133 136 125 116 121 113 113 111 116 111 106 111 111 108 106 98 88 83 79 79 81 84 89 88 84 87 98 124 193 227 151 111 102 99 133 122 131 128 119 115
132 148 155 150 132 129 119 124 124 120 121 107 102 115 115 114 108 101 97 92 89 84 76 75 78 86 97 111 83 2 316 275 256 205 146 187 169 162 157 156 153 152 150
128 152 152 135 136 134 133 136 129 127 126 126 127 126 113 109 113 112 106 98 88 72 64 64 92 100 68 62 42 14 352 314 76 145 152 172 224 194 170 170 160 163 169
130 131 128 133 134 136 144 131 128 133 131 130 140 138 140 137 126 118 110 103 94 81 70 58 52 39 35 45 39 29 19 37 68 65 151 190 215 200 191 180 176 176 183
132 128 134 138 147 153 131 121 118 129 135 141 140 140 137 131 126 119 114 107 106 96 89 82 63 36 17 14 14 6 21 33 96 111 251 254 231 208 202 189 191 190 188
123 138 142 129 104 80 109 129 126 126 131 126 123 121 122 86 57 19 58 296 175 88 80 68 59 35 23 10 357 341 318 340 158 198 210 229 260 237 224 214 202 199 197
158 164 163 156 147 153 187 156 135 124 115 106 108 129 65 65 29 349 296 287 315 300 69 82 66 55 41 43 36 12 11 314 252 182 177 239 252 250 244 235 237 232 213
188 193 179 171 170 150 236 107 92 75 91 135 157 131 162 198 236 233 233 235 242 249 337 251 140 147 59 6 314 15 23 324 285 186 175 203 244 253 257 249 236 236 234
189 195 181 178 165 166 12 143 115 95 280 201 74 185 205 126 256 229 268 33 92 112 40 225 198 158 183 247 252 168 112 347 281 243 173 203 214 233 257 258 249 246 238
183 196 184 174 172 193 186 185 199 183 202 181 145 163 139 124 360 68 68 117 101 117 178 211 204 189 222 237 260 228 125 253 265 274 245 205 214 218 236 259 255 255 252
189 193 194 170 183 195 198 187 186 216 218 231 181 174 299 79 51 11 55 115 140 197 212 215 50 300 242 238 233 189 70 319 320 294 269 267 221 218 233 241 256 254 254
200 186 176 191 205 210 217 190 182 211 222 262 223 208 150 141 70 353 77 97 156 196 197 311 252 207 300 293 284 103 167 336 304 265 252 261 276 260 248 242 245 260 253
206 168 181 192 213 209 213 166 164 204 212 239 257 214 211 205 93 9 126 110 201 225 137 31 289 80 343 325 329 357 280 280 302 316 288 271 246 264 259 248 249 255 258
190 181 174 186 188 167 156 164 165 214 247 223 233 193 4 316 240 215 133 118 171 151 140 73 320 24 312 309 331 331 326 323 314 305 301 291 274 252 259 261 251 245 255
184 171 178 173 182 168 161 154 189 214 203 220 231 209 159 280 288 297 15 76 137 136 150 167 269 293 303 299 294 291 288 283 287 293 292 291 275 259 245 260 262 252 258
185 174 176 176 175 177 160 142 133 63 33 1 278 200 169 207 214 133 36 34 139 134 176 195 184 217 240 242 262 273 271 274 279 285 291 299 301 284 263 257 264 265 263
179 181 183 174 183 154 158 134 132 137 142 5 66 85 78 106 87 114 90 14 17 60 286 188 175 188 210 220 293 294 277 264 271 269 277 281 281 289 278 263 259 257 266
182 187 184 191 175 187 160 163 145 149 167 127 107 67 58 357 57 116 127 109 42 334 353 349 16 353 288 169 179 154 338 325 332 287 294 293 282 285 306 304 275 246 245
191 189 190 189 188 186 185 115 84 67 48 68 83 66 6 16 24 37 26 35 53 52 63 330 327 19 254 308 226 155 324 258 321 307 299 298 289 293 269 285 295 300 296
196 190 190 192 191 198 163 157 152 149 173 170 142 138 165 349 96 72 34 30 26 21 26 17 28 23 15 291 315 208 249 207 273 312 314 305 308 314 302 286 282 287 293
183 183 184 184 187 190 171 143 135 155 138 138 106 139 90 54 45 65 45 25 24 27 23 18 20 35 36 12 355 319 318 255 238 244 295 302 284 261 276 288 288 284 283
182 172 158 144 134 132 130 148 152 151 159 134 123 89 65 76 33 24 34 39 36 32 22 13 7 23 32 19 349 351 355 345 335 324 292 315 295 302 279 278 286 297 294